Tracking 31027 objects as of 19-Jul-2025
HD Live streaming from Space Station
objects crossing your sky now

STARLINK-5178

Track STARLINK-5178 now!
10-day predictions
STARLINK-5178 is classified as:


NORAD ID: 54083
Int'l Code: 2022-136AJ
Perigee: 546.0 km
Apogee: 547.9 km
Inclination: 53.2 °
Period: 95.4 minutes
Semi major axis: 6917 km
RCS: Unknown
Launch date: October 20, 2022
Source: United States (US)
Launch site: AIR FORCE EASTERN TEST RANGE (AFETR)
Your satellite tracking list
SL-12 R/B(AUX MOTOR)
Track 1 satellite(s)




NASA's NSSDC Master Catalog

Two Line Element Set (TLE):
1 54083U 22136AJ  25199.66691300  .00003552  00000-0  24136-3 0  9995
2 54083  53.2198 304.7654 0001406 110.6250 249.4893 15.08811546152135
Source of the keplerian elements: AFSPC